Location: Wien
(48.2082°N, 16.3738°E)
Time: 18:35:43
(UTC+02:00)

MOZHAYETS 4 - Pass Details

Date: 30 March 2019
Orbit: 661 x 681 km, 98.1° (Epoch: 16 October)

Event Time Altitude Azimuth Distance (km) Brightness Sun altitude
Exits shadow 01:26:50 24° 8° (N) 1,385 9.8 -34.8°
Drops below altitude 10° 01:28:49 10° 357° (N) 2,117 10.9 -34.6°
Sets 01:31:07 0° 351° (N) 3,039 11.8 -34.5°
